Home   Weather   Borås   Past weeks

Flag for Sweden Past Weather in Borås, Sweden — Yesterday and Last 2 Weeks

39 °F

Partly cloudy.

Feels Like: 32 °F
Forecast: 40 / 42 °F
Wind: 12 mph from Northeast

Location: Gothenburg / Landvetter

Current Time: Oct 22, 2016 at 1:46:36 AM

Latest Report: Oct 22, 2016 at 12:50 AM

Visibility: N/A

Pressure: 30.18 "Hg

Humidity: 93%

Dew Point: 37 °F

Location of BoråsLocation

Past Weather in Borås — Graph


Borås Temperature Yesterday

Maximum temperature yesterday: 45 °F (at 11:50 AM)
Minimum temperature yesterday: 39 °F (at 7:50 PM)
Average temperature yesterday: 42 °F

High & Low Weather Summary for the Past Weeks

High54 °F (Oct 7, 1:50 PM)100% (Oct 9, 11:20 PM)30.48 "Hg (Oct 9, 11:20 PM)
Low32 °F (Oct 14, 12:20 AM)54% (Oct 7, 1:20 PM)30.01 "Hg (Oct 19, 4:20 AM)
Average43 °F83%30.29 "Hg
* Reported Oct 7 12:20 AM — Oct 22 12:20 AM, Borås, Weather by CustomWeather, © 2016

Note: Actual official high and low records may vary slightly from our data, if they occured in-between our weather recording intervals... More about our weather records


Borås Weather History for the Previous 24 Hours

Scroll right to see more
Time TempWeatherWind HumidityBarometerVisibility
12:20 AM
Sat, Oct 22
39 °FMostly cloudy.13 mph93%30.18 "HgN/A
11:50 PM
Fri, Oct 21
39 °FLow clouds.14 mph93%30.18 "HgN/A
11:20 PM39 °FOvercast.12 mph93%30.18 "HgN/A
10:50 PM39 °FPassing clouds.10 mph93%30.18 "HgN/A
10:20 PM41 °FPassing clouds.12 mph87%30.18 "HgN/A
9:50 PM39 °FPassing clouds.12 mph93%30.18 "HgN/A
9:20 PM39 °FMostly cloudy.12 mph93%30.18 "HgN/A
8:50 PM39 °FPassing clouds.10 mph93%30.15 "HgN/A
8:20 PM39 °FMostly cloudy.12 mph93%30.15 "HgN/A
7:50 PM39 °FMostly cloudy.12 mph93%30.15 "HgN/A
7:20 PM41 °FDrizzle. Mostly cloudy.12 mph87%30.15 "HgN/A
6:50 PM41 °FPartly cloudy.12 mph93%30.15 "HgN/A
6:20 PM41 °FPartly cloudy.12 mph93%30.15 "Hg6 mi
5:50 PM41 °FPassing clouds.10 mph93%30.15 "Hg6 mi
5:20 PM41 °FDrizzle. Broken clouds.12 mph93%30.15 "Hg5 mi
4:50 PM41 °FDrizzle. Mostly cloudy.10 mph93%30.15 "HgN/A
4:20 PM43 °FDrizzle. Broken clouds.12 mph87%30.15 "HgN/A
3:50 PM43 °FDrizzle. Broken clouds.13 mph87%30.12 "HgN/A
3:20 PM43 °FLight rain. Partly sunny.10 mph93%30.12 "HgN/A
2:50 PM43 °FDrizzle. Partly sunny.13 mph93%30.12 "Hg6 mi
2:20 PM45 °FMostly cloudy.13 mph81%30.12 "HgN/A
1:50 PM45 °FCloudy.13 mph81%30.12 "HgN/A
1:20 PM45 °FBroken clouds.14 mph87%30.12 "HgN/A
12:50 PM45 °FBroken clouds.13 mph87%30.12 "HgN/A
12:20 PM45 °FDrizzle. Broken clouds.12 mph93%30.12 "HgN/A
11:50 AM45 °FDrizzle. Mostly cloudy.12 mph93%30.12 "HgN/A
11:20 AM43 °FMostly cloudy.10 mph93%30.12 "HgN/A
10:50 AM43 °FFog.12 mph93%30.12 "Hg4 mi
10:20 AM43 °FDrizzle. Low clouds.14 mph93%30.12 "Hg5 mi
9:50 AM43 °FLow clouds.15 mph93%30.12 "HgN/A
9:20 AM43 °FPartly sunny.13 mph93%30.12 "HgN/A
8:50 AM43 °FLow clouds.13 mph93%30.12 "HgN/A
8:20 AM43 °FLow clouds.15 mph87%30.12 "HgN/A
7:50 AM43 °FOvercast.14 mph87%30.12 "HgN/A
7:20 AM43 °FOvercast.13 mph87%30.12 "HgN/A
6:50 AM43 °FLow clouds.12 mph87%30.12 "HgN/A
6:20 AM43 °FLow clouds.14 mph87%30.12 "HgN/A
5:50 AM43 °FLow clouds.12 mph87%30.12 "HgN/A
5:20 AM43 °FLow clouds.12 mph87%30.12 "HgN/A
4:50 AM43 °FLow clouds.12 mph87%30.12 "HgN/A
4:20 AM43 °FLow clouds.13 mph87%30.15 "HgN/A
3:50 AM41 °FLow clouds.10 mph93%30.15 "HgN/A
3:20 AM41 °FLow clouds.13 mph93%30.15 "HgN/A
2:50 AM41 °FOvercast.13 mph93%30.15 "HgN/A
2:20 AM41 °FPassing clouds.10 mph93%30.18 "HgN/A
1:50 AM41 °FPassing clouds.10 mph87%30.18 "HgN/A
1:20 AM41 °FMostly cloudy.10 mph87%30.18 "HgN/A
Weather by CustomWeather, © 2016

See weather overviewHow to use our weather pages